Location: Hillern
(53.0557°N, 9.8577°E)
Time: 10:44:02
(UTC+00:00)

ISS - Pass Details

Date: 19 May 2025
Orbit: 415 x 417 km, 51.6° (Epoch: 24 June)

Event Time Altitude Azimuth Distance (km) Brightness Sun altitude
Rises 20:09:29 0° 275° (W) 2,363 0.9 -6.5°
Reaches altitude 10° 20:11:36 10° 271° (W) 1,497 -0.2 -6.7°
Maximum altitude 20:14:55 60° 192° (SSW) 483 -3.6 -7.1°
Drops below altitude 10° 20:18:13 10° 111° (ESE) 1,491 -1.5 -7.4°
Enters shadow 20:18:41 - 110° (ESE) 1,678 -1.2 -7.4°
